Home   Weather   Stonewall   Past weeks

Flag for Canada Past Weather in Stonewall, Manitoba, Canada — Yesterday and Last 2 Weeks

Now
18 °F

Light snow. Mostly cloudy.


Feels Like: -1 °F
Forecast: 1 / 18 °F
Wind: 25 mph from Northwest

Location: Winnipeg Int. Airportman.

Current Time: Dec 8, 2016 at 12:15:31 am

Latest Report: Dec 7, 2016 at 11:00 pm


Visibility: 15 mi

Pressure: 30.32 "Hg

Humidity: 86%

Dew Point: 14 °F

Location of StonewallLocation

Past Weather in Stonewall — Graph

°F

Stonewall Temperature Yesterday

Maximum temperature yesterday: 23 °F (at 12:00 am)
Minimum temperature yesterday: 18 °F (at 9:00 pm)
Average temperature yesterday: 22 °F

High & Low Weather Summary for the Past Weeks

 TemperatureHumidityPressure
High41 °F (Nov 28, 7:00 pm)100% (Nov 22, 11:00 pm)30.32 "Hg (Nov 22, 11:00 pm)
Low18 °F (Dec 7, 9:00 pm)70% (Nov 26, 12:00 pm)29.08 "Hg (Nov 28, 2:00 pm)
Average30 °F92%29.86 "Hg
* Reported Nov 22 11:00 pm — Dec 7 11:00 pm, Stonewall, Weather by CustomWeather, © 2016

Note: Actual official high and low records may vary slightly from our data, if they occured in-between our weather recording intervals... More about our weather records

Advertising

Stonewall Weather History for the Previous 24 Hours

Scroll right to see more
 ConditionsComfort  
Time TempWeatherWind HumidityBarometerVisibility
11:00 pm
Wed, Dec 7
18 °FLight snow. Mostly cloudy.25 mph86%30.32 "Hg15 mi
10:00 pm18 °FLight snow. Mostly cloudy.25 mph86%30.28 "Hg10 mi
9:00 pm18 °FLight snow. Mostly cloudy.25 mph86%30.26 "Hg6 mi
8:00 pm19 °FLight snow. Overcast.24 mph86%30.24 "Hg5 mi
7:00 pm21 °FLight snow. Overcast.22 mph80%30.21 "Hg7 mi
6:00 pm21 °FLight snow. Overcast.22 mph80%30.17 "Hg10 mi
5:00 pm21 °FLight snow. Overcast.24 mph86%30.14 "Hg6 mi
4:49 pm21 °FLight snow. Overcast.23 mph86%30.14 "Hg7 mi
4:00 pm21 °FLight snow. Overcast.28 mph86%30.10 "Hg2 mi
3:00 pm23 °FLight snow. Overcast.13 mph86%30.06 "Hg3 mi
2:54 pm23 °FLight snow. Overcast.16 mph86%30.06 "Hg3 mi
2:00 pm23 °FLight snow. Overcast.21 mph86%30.02 "Hg4 mi
1:00 pm23 °FLight snow. Cloudy.22 mph86%30.00 "Hg3 mi
12:00 pm23 °FCold.20 mph93%29.97 "Hg1 mi
11:00 am23 °FLight snow. More clouds than sun.24 mph86%29.95 "Hg1 mi
10:04 am23 °FLight snow. Mostly cloudy.23 mph86%29.92 "Hg1 mi
9:00 am23 °FLight snow. Mostly cloudy.22 mph86%29.88 "Hg12 mi
8:00 am23 °FLight snow. Overcast.20 mph93%29.85 "Hg15 mi
7:00 am23 °FLight snow. Mostly cloudy.23 mph86%29.82 "Hg2 mi
6:00 am23 °FLight snow. Mostly cloudy.23 mph86%29.79 "Hg2 mi
5:00 am23 °FLight snow. Overcast.26 mph86%29.77 "Hg2 mi
4:00 am23 °FLight snow. Overcast.26 mph86%29.75 "Hg2 mi
3:00 am23 °FLight snow. Overcast.31 mph86%29.72 "Hg1 mi
2:00 am23 °FLight snow. Overcast.31 mph86%29.70 "Hg1 mi
1:00 am23 °FLight snow. Overcast.28 mph93%29.67 "Hg2 mi
12:00 am23 °FLight snow. Overcast.29 mph93%29.66 "Hg2 mi
Weather by CustomWeather, © 2016

See weather overviewHow to use our weather pages